sat.trackr.live / text

‹ back to catalog

STARLINK-3711

NORAD 52131 · 2022-029AV

PAYLOAD ACTIVE UNKNOWN

§ Identity

Operator
Country
US
Launch date
2022-03-19
Launch site
AFETR
Launch vehicle
Mass (kg)
RCS (m²)

Purposes: comms

External: N2YO · Heavens-Above · Gunter

§ Orbital elements

Epoch: 2026-09-19T13:23:00.445920Z

Period
94.58 min
Inclination
53.2259°
Eccentricity
0.0004299
Mean motion
15.22579439 rev/d
Perigee alt
495.1 km
Apogee alt
501.0 km
Semi-major
6,876.2 km
B*
8.9124e-4
RAAN
264.1334°
Arg perigee
72.1544°
Mean anomaly
287.9923°
Rev number
25,041

§ Raw data

STARLINK-37111 52131U 22029AV  26262.55764405  .00020694  00000+0  89124-3 0  99982 52131  53.2259 264.1334 0004299  72.1544 287.9923 15.22579439250419

JSON: /api/v1/satellites/52131 · /tle

For live sub-satellite position, see the globe view (requires WebGL).

§ Visibility from observer

Set your observer location to see the next 7 days of passes ≥ 10°. The values pass through the URL so the page stays shareable.

No JS? Fill the form by hand. The geolocation button needs JavaScript.